STARLINK-34789, 65022

Orbit data source: Space-Track

STARLINK-34789, 65022 is a payload satellite owned by SpaceX/Seattle (US) in LEO that was launched on Wed, 30 Jul 2025 UTC via an FALCON 9 launch vehicle from the Air Force Eastern Test Range (AFETR). Payload-class satellites include a variety of spacecraft equipped with specific instruments for various scientific and technological missions. These include communications satellites like Starlink; space stations such as the ISS; scientific satellites like the Hubble; Earth observation satellites from companies like Planet Labs, Umbra, and HawkEye 360; GPS; miniature CubeSats for education and research; and military/defense satellites.

Loading next visibility...
Identifier
65022, 2025-161H
Orbit
LEO
Country
Flag of USUS
Related business
Manufacturer
SpaceX/Seattle
Mission
Operational spacecraft
Bus & Motor
STARLINK V2MO, Unknown motor
Mass
575 kg wet, ~530 kg dry
Launch date (UTC)
2025-07-30 (1 month ago)
Launch vehicle
FALCON 9
Launch site
Air Force Eastern Test Range (AFETR)
Object type
Payload
Rocket body
Debris
Shape & HBR
Unknown
Radar Cross Section
Large (>1 m²)

Expand to show TLE details & history
Last TLE update: 19 hours ago

TLE from 19 hours ago
0 STARLINK-34789
1 65022U 25161H   25241.25002315  .00009387  00000-0  24454-3 0  9991
2 65022  53.1588 110.5529 0000698  89.6146 192.4963 15.39598459  5879
Epoch: 2025-08-29T06:00Z
TLE epoch observation values (Epoch: 2025-08-29T06:00:02Z)
Latitude
-51.65187°
Longitude
-27.51213°
Altitude
465.658 km
Speed
7.633 km/s
True Right ascension
02h 40m 47s
True Declination
-51° 28' 38"
Sunlit
Object was in full shadow at epoch
Visualization orbit readout
Latitude
Unknown
Longitude
Unknown
Altitude
Unknown
Speed
Unknown
Apparent Right ascension
Unknown
Apparent Declination
Unknown
Sunlit
N/A
Visualization observer readout
Local Sidereal Time
16:53:35
Azimuth
Unknown
Elevation
Unknown
Doppler factor
Unknown
Orbital elements
Apogee altitude
448.03 km
Perigee altitude
447.077 km
Semi-major axis
6,825.69 km
Eccentricity
0.00007
Inclination
53.1588°
RAAN
110.5529°
Arg. of periapsis
89.6146°
True anomaly
192.49457°
Mean anomaly
192.4963°
Eccentric anomaly
192.49543°
Mean motion
3.84878 °/min
Orbital period
93.54 mins
BSTAR
0.00024454
Loading maneuver chart data...
Computing Atmospheric mass density...
Loading historical data...
Loading historical data...
Loading historical data...
Loading historical data...
Loading historical data...
Loading historical data...
Loading historical data...

Documentation

Showing up to 5 results
|